[[{"header":{"parameterUnit":"m.s-1","parameterCategory":1,"la1":30.2991,"la2":30.254,"lo1":-89.0895,"lo2":-89.0444,"dy":0.0017,"dx":0.0017,"nx":28,"ny":28,"refTime":"2024-03-02T09:00:00:Z","depth":0,"parameterNumber":2,"parameterNumberName":"U-component_of_WINDS"},"data":[0,0,0,0,0,0,0,0,0,0,0,0,0,0,0,0,0,0,0,0,0,0,0,0,0,0,0,0,0,0,0,0,0,0,0,0,0,0,0,0,0,0,0,0,0,0,0,0,0,0,0,0,0,0,0,0,0,0,-1.7223,-1.7222,0,-1.7161,-1.716,-1.716,-1.7085,-1.7084,-1.7082,-1.7081,-1.7017,-1.7016,-1.7016,0,0,0,0,0,0,0,0,0,0,0,0,0,-1.7274,-1.7274,-1.7223,-1.7222,-1.7221,-1.7161,-1.716,-1.7159,-1.7085,-1.7084,-1.7082,-1.7081,-1.7017,-1.7016,-1.7015,0,0,0,0,0,0,0,0,0,0,0,0,0,-1.7236,-1.7274,-1.7223,-1.7177,-1.7172,-1.7161,-1.716,-1.7159,-1.7085,-1.7084,-1.7082,-1.708,-1.7017,-1.7016,-1.7015,-1.7044,0,0,-1.7012,-1.7012,0,0,0,0,0,0,0,0,-1.7239,-1.7235,-1.7184,-1.718,-1.7175,-1.7129,-1.7155,-1.7121,-1.7086,-1.7118,-1.7081,-1.7079,-1.7055,-1.7051,-1.7043,-1.7041,-1.7039,-1.7012,-1.7012,-1.7011,-1.7011,0,0,0,0,0,0,0,-1.7241,-1.7237,-1.7198,-1.7184,-1.7178,-1.7159,-1.7151,-1.7148,-1.7097,-1.7115,-1.711,-1.7103,-1.7052,-1.7045,-1.7041,-1.7038,-1.7012,-1.7012,-1.7011,-1.7011,-1.7056,-1.7058,0,0,0,0,0,0,-1.7251,-1.7239,-1.72,-1.7196,-1.7203,-1.7159,-1.7151,-1.7145,-1.7097,-1.7088,-1.7105,-1.71,-1.7047,-1.7043,-1.7039,-1.707,-1.7011,-1.701,-1.701,-1.7055,-1.7057,-1.7059,0,0,0,0,0,0,-1.7253,-1.7248,-1.7203,-1.7216,-1.7209,-1.716,-1.7154,-1.7145,-1.7137,-1.7089,-1.708,-1.7106,-1.7045,-1.704,-1.7044,-1.7067,-1.701,-1.7009,-1.7053,-1.7055,-1.7058,-1.7133,0,0,0,0,0,0,-1.7254,-1.7249,-1.726,-1.7217,-1.7209,-1.721,-1.7156,-1.7145,-1.7136,-1.7129,-1.7088,-1.708,-1.7044,-1.7046,-1.7043,-1.7065,-1.7008,-1.705,-1.7054,-1.7057,-1.7129,-1.7138,-1.7147,0,0,0,0,0,-1.7256,-1.7284,-1.7261,-1.7257,-1.7222,-1.7211,-1.7206,-1.7164,-1.7138,-1.7148,-1.7118,-1.7081,-1.7065,-1.7047,-1.7043,-1.7065,-1.7049,-1.7053,-1.7057,-1.7125,-1.7137,-1.7147,0,0,0,0,0,0,-1.733,-1.7277,-1.7252,-1.7266,-1.7244,-1.7198,-1.721,-1.7178,-1.7163,-1.7157,-1.7105,-1.7096,-1.7107,-1.7085,-1.7066,-1.709,-1.7051,-1.7055,-1.7104,-1.7115,-1.7124,-1.7129,-1.7008,0,0,0,0,0,-1.7348,-1.7345,-1.7298,-1.7315,-1.7305,-1.726,-1.7254,-1.7224,-1.7198,-1.7188,-1.7158,-1.7134,-1.7123,-1.7118,-1.7105,-1.7125,-1.7115,-1.7138,-1.7147,-1.7154,-1.7159,-1.7168,-1.7178,-1.7072,-1.7072,-1.7072,0,0,-1.7385,-1.7356,-1.7357,-1.7329,-1.7308,-1.7306,-1.7253,-1.7252,-1.7249,-1.7188,-1.719,-1.7167,-1.7137,-1.7149,-1.7152,-1.7132,-1.7185,-1.716,-1.7166,-1.7166,-1.7173,-1.7183,-1.7192,-1.7075,-1.7074,-1.7074,0,0,-1.7452,-1.7429,-1.7441,-1.7421,-1.739,-1.736,-1.7363,-1.7323,-1.7305,-1.7306,-1.7261,-1.7256,-1.7239,-1.722,-1.7208,-1.7267,-1.7233,-1.7264,-1.7312,-1.7321,-1.733,-1.7337,-1.7359,-1.7367,-1.7268,-1.7268,-1.7268,0,-1.7502,-1.7497,-1.7451,-1.7453,-1.7443,-1.7387,-1.7399,-1.7382,-1.7349,-1.7342,-1.7319,-1.7297,-1.7273,-1.728,-1.7294,-1.7286,-1.7288,-1.7269,-1.7332,-1.7339,-1.7345,-1.7365,-1.7374,-1.7272,-1.7272,-1.7271,-1.7271,0,-1.756,-1.7557,-1.757,-1.754,-1.7531,-1.7538,-1.7493,-1.7489,-1.7459,-1.7431,-1.7433,-1.7402,-1.7383,-1.7382,-1.7352,-1.7385,-1.7373,-1.7342,-1.7302,-1.736,-1.7378,-1.7386,-1.7278,-1.7276,-1.7275,-1.7274,0,0,-1.7673,-1.7618,-1.7623,-1.7609,-1.7571,-1.7567,-1.7571,-1.7553,-1.7551,-1.7529,-1.7532,-1.7518,-1.7489,-1.7476,-1.7444,-1.7452,-1.7502,-1.7419,-1.7418,-1.7437,-1.7537,-1.7562,-1.7571,-1.7478,-1.748,-1.7481,-1.754,0,-1.7734,-1.7739,-1.7698,-1.7714,-1.7711,-1.7657,-1.7661,-1.7638,-1.7611,-1.7604,-1.7574,-1.7567,-1.7528,-1.752,-1.7526,-1.7495,-1.7521,-1.749,-1.7481,-1.7481,-1.7492,-1.7581,-1.7607,-1.7664,-1.7546,-1.7547,-1.7548,0,-1.7806,-1.7789,-1.7805,-1.7766,-1.7763,-1.7768,-1.7748,-1.7741,-1.7714,-1.7694,-1.7679,-1.7642,-1.7643,-1.7604,-1.7604,-1.7584,-1.7577,-1.7562,-1.7563,-1.7562,-1.752,-1.7584,-1.7681,-1.7691,-1.7559,-1.7558,-1.7557,0,-1.7889,-1.787,-1.7877,-1.7866,-1.7821,-1.7825,-1.7806,-1.7777,-1.7768,-1.775,-1.7744,-1.7726,-1.7717,-1.7704,-1.7663,-1.7638,-1.7669,-1.7626,-1.7653,-1.7654,-1.7663,-1.7664,-1.7763,-1.7657,-1.7656,-1.7656,-1.7656,0,-1.7962,-1.7974,-1.7914,-1.7919,-1.793,-1.7882,-1.7895,-1.7871,-1.7845,-1.7844,-1.7796,-1.7796,-1.7741,-1.7735,-1.7702,-1.7709,-1.7704,-1.7688,-1.768,-1.7694,-1.7696,-1.769,-1.7686,-1.7658,-1.7658,-1.7658,-1.7657,0,-1.8057,-1.8017,-1.8022,-1.7978,-1.7967,-1.7978,-1.7941,-1.7943,-1.7913,-1.7912,-1.7909,-1.7863,-1.7853,-1.781,-1.7789,-1.7768,-1.7785,-1.7767,-1.7795,-1.779,-1.782,-1.7818,-1.792,-1.7932,-1.7817,-1.7818,-1.7819,0,-1.8107,-1.8116,-1.8073,-1.8069,-1.8053,-1.8047,-1.8038,-1.799,-1.7983,-1.7952,-1.7958,-1.7944,-1.7931,-1.7917,-1.7881,-1.7865,-1.7848,-1.7885,-1.7845,-1.7859,-1.785,-1.7851,-1.7852,-1.7894,-1.7895,-1.7897,-1.7898,0,-1.8202,-1.8181,-1.8171,-1.8154,-1.8145,-1.8129,-1.811,-1.8109,-1.8056,-1.805,-1.804,-1.8029,-1.8009,-1.7996,-1.7974,-1.7953,-1.7917,-1.791,-1.7916,-1.7931,-1.7947,-1.794,-1.782,-1.7908,-1.7907,-1.7906,-1.7906,-1.7905,-1.8277,-1.8282,-1.8253,-1.8243,-1.8224,-1.8207,-1.8207,-1.8178,-1.8168,-1.8148,-1.812,-1.8113,-1.8085,-1.8052,-1.8034,-1.8028,-1.8007,-1.8015,-1.8017,-1.8021,-1.8028,-1.7947,-1.8023,-1.8023,-1.8023,-1.8022,-1.8022,0,-1.837,-1.8348,-1.8339,-1.8315,-1.8307,-1.8273,-1.825,-1.8246,-1.8241,-1.8217,-1.8205,-1.8193,-1.818,-1.8143,-1.8126,-1.8128,-1.8111,-1.8125,-1.8126,-1.8122,-1.8047,-1.8044,-1.814,-1.814,-1.814,-1.814,-1.814,-1.8139,-1.8417,-1.8425,-1.8401,-1.8398,-1.8376,-1.8369,-1.8359,-1.8344,-1.8325,-1.8314,-1.8303,-1.8279,-1.825,-1.823,-1.8217,-1.8206,-1.8203,-1.8223,-1.8207,-1.8138,-1.8127,-1.8116,-1.8114,-1.8222,-1.8222,-1.8283,-1.8284,-1.8284]},{"header":{"parameterUnit":"m.s-1","parameterCategory":1,"la1":30.2991,"la2":30.254,"lo1":-89.0895,"lo2":-89.0444,"dy":0.0017,"dx":0.0017,"nx":28,"ny":28,"refTime":"2024-03-02T09:00:00:Z","depth":0,"parameterNumber":3,"parameterNumberName":"V-component_of_WINDS"},"data":[0,0,0,0,0,0,0,0,0,0,0,0,0,0,0,0,0,0,0,0,0,0,0,0,0,0,0,0,0,0,0,0,0,0,0,0,0,0,0,0,0,0,0,0,0,0,0,0,0,0,0,0,0,0,0,0,0,0,-0.9386,-0.9386,0,-0.9395,-0.9395,-0.9395,-0.9388,-0.9387,-0.9387,-0.9387,-0.9396,-0.9397,-0.9397,0,0,0,0,0,0,0,0,0,0,0,0,0,-0.9361,-0.9361,-0.9386,-0.9386,-0.9386,-0.9395,-0.9395,-0.9395,-0.9388,-0.9387,-0.9387,-0.9386,-0.9396,-0.9397,-0.9397,0,0,0,0,0,0,0,0,0,0,0,0,0,-0.9371,-0.9362,-0.9386,-0.9383,-0.9383,-0.9395,-0.9395,-0.9395,-0.9388,-0.9387,-0.9387,-0.9386,-0.9396,-0.9396,-0.9397,-0.9412,0,0,-0.94,-0.94,0,0,0,0,0,0,0,0,-0.937,-0.9372,-0.9384,-0.9383,-0.9383,-0.939,-0.939,-0.9401,-0.9388,-0.9386,-0.9387,-0.9386,-0.9394,-0.9395,-0.9398,-0.9412,-0.9413,-0.94,-0.94,-0.9401,-0.9401,0,0,0,0,0,0,0,-0.937,-0.9372,-0.9389,-0.9384,-0.9384,-0.9381,-0.9382,-0.9392,-0.9393,-0.9386,-0.9386,-0.9387,-0.9394,-0.9397,-0.9398,-0.9413,-0.94,-0.9401,-0.9401,-0.9401,-0.9439,-0.9439,0,0,0,0,0,0,-0.9369,-0.9371,-0.9389,-0.939,-0.9376,-0.9382,-0.9383,-0.9388,-0.9393,-0.9393,-0.9387,-0.9386,-0.9396,-0.9397,-0.9398,-0.9415,-0.9401,-0.9401,-0.9402,-0.9438,-0.9439,-0.9439,0,0,0,0,0,0,-0.9369,-0.9371,-0.9389,-0.938,-0.9382,-0.9383,-0.9389,-0.9389,-0.9392,-0.9393,-0.9393,-0.939,-0.9396,-0.9397,-0.9408,-0.9416,-0.9402,-0.9403,-0.9438,-0.9438,-0.9439,-0.945,0,0,0,0,0,0,-0.9368,-0.9371,-0.9377,-0.938,-0.9383,-0.9399,-0.9389,-0.9389,-0.9393,-0.9392,-0.9396,-0.9396,-0.9395,-0.9407,-0.9409,-0.9417,-0.9403,-0.9437,-0.9438,-0.9439,-0.9449,-0.9451,-0.9453,0,0,0,0,0,-0.9367,-0.938,-0.9377,-0.9379,-0.939,-0.9399,-0.9401,-0.9399,-0.9394,-0.9399,-0.94,-0.9396,-0.9414,-0.9408,-0.9411,-0.9418,-0.9437,-0.9438,-0.9439,-0.9448,-0.945,-0.9453,0,0,0,0,0,0,-0.9377,-0.938,-0.9377,-0.9391,-0.9395,-0.9398,-0.9405,-0.9402,-0.9408,-0.9407,-0.9404,-0.9405,-0.9417,-0.9419,-0.9412,-0.9432,-0.9425,-0.9426,-0.9431,-0.9433,-0.9435,-0.9434,-0.9404,0,0,0,0,0,-0.9381,-0.9389,-0.939,-0.9403,-0.9405,-0.9405,-0.9409,-0.9407,-0.9411,-0.9412,-0.9414,-0.9418,-0.9424,-0.9429,-0.9435,-0.9449,-0.9449,-0.9455,-0.9457,-0.9458,-0.946,-0.9467,-0.9469,-0.9443,-0.9443,-0.9443,0,0,-0.9389,-0.9392,-0.9397,-0.9405,-0.9407,-0.9415,-0.9406,-0.9414,-0.942,-0.9414,-0.9424,-0.9426,-0.943,-0.9442,-0.9448,-0.9444,-0.9467,-0.946,-0.9461,-0.9462,-0.9468,-0.9471,-0.9473,-0.9444,-0.9444,-0.9444,0,0,-0.9408,-0.941,-0.942,-0.9423,-0.9427,-0.9427,-0.9429,-0.9432,-0.9433,-0.9443,-0.9439,-0.9445,-0.9456,-0.9459,-0.9462,-0.948,-0.9476,-0.9482,-0.9492,-0.9498,-0.95,-0.9502,-0.9508,-0.951,-0.9483,-0.9483,-0.9483,0,-0.9417,-0.9428,-0.9426,-0.9434,-0.9438,-0.9432,-0.9442,-0.9445,-0.9451,-0.9453,-0.9448,-0.9462,-0.9464,-0.9477,-0.9481,-0.9484,-0.9486,-0.9482,-0.95,-0.9502,-0.9504,-0.9509,-0.9512,-0.9484,-0.9484,-0.9484,-0.9484,0,-0.944,-0.9447,-0.9455,-0.946,-0.9464,-0.9473,-0.9472,-0.9476,-0.9474,-0.9474,-0.9484,-0.9487,-0.9493,-0.9496,-0.9494,-0.9508,-0.9505,-0.95,-0.9493,-0.9507,-0.9512,-0.9514,-0.9485,-0.9485,-0.9484,-0.9484,0,0,-0.9466,-0.9469,-0.9472,-0.9473,-0.9477,-0.9483,-0.9491,-0.9497,-0.95,-0.9504,-0.9511,-0.952,-0.9515,-0.9519,-0.9517,-0.9523,-0.9536,-0.9517,-0.9517,-0.952,-0.9551,-0.9554,-0.9557,-0.9533,-0.9534,-0.9534,-0.955,0,-0.9484,-0.9499,-0.9496,-0.951,-0.9517,-0.9511,-0.9518,-0.9521,-0.9521,-0.9526,-0.9526,-0.9532,-0.9526,-0.9528,-0.9533,-0.9533,-0.9542,-0.9532,-0.9539,-0.954,-0.9539,-0.956,-0.9564,-0.9579,-0.9553,-0.9553,-0.9553,0,-0.9508,-0.9512,-0.9527,-0.9528,-0.9531,-0.9537,-0.9542,-0.9547,-0.9549,-0.9549,-0.9552,-0.9549,-0.9556,-0.9548,-0.9559,-0.9552,-0.9555,-0.9555,-0.9556,-0.9556,-0.9547,-0.9561,-0.9584,-0.9587,-0.9556,-0.9556,-0.9556,0,-0.9525,-0.9534,-0.9544,-0.9546,-0.9548,-0.9552,-0.9553,-0.9555,-0.9559,-0.9562,-0.9564,-0.9569,-0.9572,-0.9575,-0.9573,-0.9567,-0.9584,-0.9576,-0.9583,-0.9583,-0.9587,-0.9587,-0.9611,-0.9589,-0.9589,-0.9589,-0.9589,0,-0.9546,-0.9555,-0.9552,-0.9558,-0.9568,-0.9564,-0.9574,-0.9574,-0.9576,-0.9581,-0.9576,-0.9582,-0.9578,-0.9583,-0.9582,-0.959,-0.9592,-0.9591,-0.9591,-0.9592,-0.9592,-0.9594,-0.9593,-0.959,-0.9589,-0.9589,-0.9589,0,-0.9567,-0.9566,-0.9576,-0.9576,-0.9576,-0.9583,-0.9584,-0.9589,-0.9588,-0.9595,-0.9597,-0.9595,-0.9601,-0.9599,-0.9605,-0.9604,-0.9614,-0.9613,-0.9614,-0.9613,-0.9621,-0.962,-0.9647,-0.965,-0.9626,-0.9626,-0.9627,0,-0.9581,-0.9588,-0.9589,-0.9592,-0.9593,-0.9599,-0.9601,-0.9598,-0.9601,-0.9604,-0.9609,-0.9614,-0.9618,-0.9626,-0.9626,-0.963,-0.9628,-0.9637,-0.9629,-0.9629,-0.9628,-0.9628,-0.9628,-0.9639,-0.9639,-0.964,-0.964,0,-0.9605,-0.9604,-0.9608,-0.9612,-0.9615,-0.9618,-0.9621,-0.9624,-0.962,-0.9624,-0.9629,-0.9632,-0.9638,-0.9643,-0.9646,-0.9647,-0.9643,-0.9642,-0.9644,-0.9646,-0.9646,-0.9645,-0.9618,-0.9642,-0.9642,-0.9642,-0.9641,-0.9641,-0.9623,-0.9628,-0.9629,-0.9634,-0.9636,-0.9638,-0.9642,-0.9642,-0.9646,-0.965,-0.9648,-0.9654,-0.9655,-0.9659,-0.966,-0.9665,-0.9661,-0.9664,-0.9665,-0.9666,-0.9667,-0.9645,-0.9665,-0.9665,-0.9665,-0.9665,-0.9665,0,-0.9647,-0.9647,-0.9651,-0.9654,-0.9658,-0.9653,-0.9655,-0.9658,-0.9664,-0.9665,-0.9669,-0.9674,-0.9679,-0.9678,-0.9682,-0.9685,-0.9683,-0.9686,-0.9686,-0.9686,-0.967,-0.9668,-0.9688,-0.9688,-0.9688,-0.9688,-0.9688,-0.9688,-0.966,-0.9668,-0.9666,-0.9675,-0.9675,-0.9681,-0.9682,-0.9684,-0.9685,-0.9691,-0.9695,-0.9694,-0.9694,-0.9698,-0.9701,-0.9701,-0.9703,-0.9706,-0.9705,-0.969,-0.9688,-0.9685,-0.9683,-0.9707,-0.9707,-0.9721,-0.9721,-0.9722]}]]